Location: Agendoh
(31.0664°N, 8.9343°W)
Time: 09:46:29
(UTC+00:00)

Cosmos 1151 Rocket - Pass Details

Date: 07 July 2022
Orbit: 592 x 615 km, 82.5° (Epoch: 13 August)

Event Time Altitude Azimuth Distance (km) Brightness Sun altitude
Rises 01:09:16 0° 19° (NNE) 2,886 7.5 -35.9°
Reaches altitude 10° 01:12:49 10° 49° (NE) 1,975 6.1 -35.8°
Enters shadow 01:13:10 11° 54° (NE) 1,922 6.0 -35.8°
